Location: Agua Sarca Trailhead
(35.2917°N, 106.4417°W)
Time: 02:38:10
(UTC+00:00)

Daily predictions for brighter satellites

Satellite Brightness Start Highest point End
(mag) Time Altitude Azimuth Time Altitude Azimuth Time Altitude Azimuth
YAOGAN 6 2.5 00:16:15 10° SSE 00:19:53 77° ENE 00:23:31 10° N
Cosmos 2297 4.2 00:18:58 10° N 00:24:12 36° ENE 00:29:25 10° SE
SL-16 R/B 2.3 00:18:38 10° SSW 00:24:17 89° ESE 00:29:59 10° NNE
Cosmos 962 Rocket 4.5 00:18:54 10° N 00:25:08 66° E 00:31:14 10° SSE
BREEZE-M DEB (TANK) 3.5 00:22:52 10° SW 00:28:31 36° SSE 00:31:24 10° ENE
Meteor 2-12 Rocket 4.4 00:22:23 10° N 00:28:32 71° E 00:34:36 10° SSE
Sich 1 3.0 00:28:31 10° N 00:32:54 85° E 00:37:12 10° S
Cosmos 1151 Rocket 3.0 00:31:37 10° S 00:35:50 59° E 00:40:02 10° NNE
Cosmos 1933 3.3 00:32:34 10° S 00:36:35 81° E 00:40:39 10° N
Cosmos 1782 3.4 00:36:30 10° SSE 00:40:06 36° E 00:43:45 10° NNE
COSMO-SKYMED 1 3.2 00:36:41 10° NNE 00:40:41 35° E 00:44:39 10° SSE
USA 215 3.3 00:35:11 10° NE 00:41:45 77° SE 00:48:17 10° SW
Cosmos 1538 Rocket 4.4 00:37:25 10° S 00:42:29 45° ESE 00:47:34 10° NNE
Cosmos 2341 Rocket 4.0 00:39:31 10° N 00:45:51 86° E 00:52:13 10° S
CZ-2D R/B 4.5 00:43:40 10° ESE 00:46:29 20° ENE 00:49:19 10° NNE
TIMED 4.5 00:44:08 10° S 00:48:25 64° ESE 00:52:45 10° NNE
X-37B 1.3 00:48:47 10° WSW 00:51:51 46° NNW 00:53:55 18° NE
SL-8 Rocket 3.9 00:47:57 10° N 00:54:13 76° E 01:00:29 10° S
SL-24 R/B 4.1 00:51:26 10° NNE 00:55:01 39° E 00:58:26 10° SSE
Cosmos 1328 Rocket 3.5 00:50:58 10° S 00:55:16 89° E 00:59:37 10° N
FALCON 9 R/B 0.2 00:55:13 10° W 00:57:23 71° S 00:58:37 25° E
Cosmos 2285 Rocket 4.0 00:51:41 10° N 00:58:01 63° ENE 01:04:16 10° SSE
Okean-O 3.7 00:55:14 10° ESE 00:58:37 22° ENE 01:02:01 10° NNE
Meteor 1-26 Rocket 4.4 00:54:27 10° S 01:00:27 85° E 01:06:31 10° N
Cosmos 1933 Rocket 4.3 00:56:40 10° NNE 01:00:35 30° ENE 01:04:29 10° SE
Cosmos 1959 Rocket 4.5 00:54:48 10° N 01:01:09 70° E 01:07:28 10° SSE
Cosmos 1666 Rocket 3.8 00:57:14 10° N 01:01:39 72° W 01:06:05 10° S
Okean O Rocket 2.2 00:57:31 10° S 01:01:48 59° W 01:06:07 10° NNW
Lacrosse 5 rocket 3.5 00:59:31 10° WNW 01:01:51 16° NW 01:04:09 10° N
SMAP 3.9 00:57:43 10° S 01:02:14 53° W 01:06:48 10° NNW
SKYMED 3 4.5 01:00:25 10° NNE 01:04:46 70° ESE 01:09:04 10° S
SAR-Lupe-4 3.5 01:01:48 10° NNE 01:05:22 64° ESE 01:08:55 10° S
Cosmos 2181 Rocket 4.4 00:59:53 10° SSW 01:06:16 69° W 01:12:38 10° N
Cosmos 1689 Rocket 2.2 01:06:56 32° NE 01:07:53 46° E 01:10:43 10° S
Meteor 1-20 Rocket 4.3 01:02:23 10° N 01:08:15 85° W 01:14:02 10° S
Meteor 1-4 Rocket 2.7 01:07:00 10° SSW 01:10:38 72° W 01:14:13 10° N
USA 267 4.5 01:09:12 18° NE 01:11:28 22° NNE 01:16:14 10° NNW
BREEZE-M DEB (TANK) 4.1 01:00:19 10° SW 01:13:30 80° NW 01:16:02 25° NE
ATLAS 3B CENTAUR R/B 2.6 01:13:49 10° SSW 01:14:20 11° S 01:14:47 10° S
SL-24 DEB 4.2 01:09:56 10° NNE 01:14:38 63° E 01:19:15 10° S
CZ-4B R/B 4.4 01:10:23 10° S 01:15:26 43° W 01:20:28 10° NNW
NOAA 11 4.5 01:11:49 10° S 01:17:12 69° WSW 01:22:38 10° NNW
USA 281 3.6 01:11:50 10° ESE 01:17:44 37° ENE 01:23:39 10° N
CZ-2C R/B 3.4 01:13:02 10° SE 01:17:44 38° ENE 01:22:16 10° N
Cosmos 1603 3.6 01:13:58 10° S 01:19:31 64° ESE 01:23:33 19° NNE
CZ-4 R/B 4.4 01:16:21 10° SSE 01:20:23 55° ENE 01:24:27 10° N
CZ-4B R/B 3.4 01:19:31 10° NNW 01:22:11 26° WNW 01:24:53 10° SW
SAR-Lupe-1 4.1 01:19:14 13° N 01:22:23 76° WNW 01:25:57 10° SSW
Cosmos 1943 3.2 01:20:17 10° S 01:25:50 64° ESE 01:29:17 24° NNE
Cosmos 1633 Rocket 4.3 01:24:09 10° NNW 01:28:15 42° W 01:32:20 10° SSW
Meteor 1-10 Rocket 4.4 01:22:55 10° SSE 01:28:21 48° E 01:31:27 24° NNE
SKYMED 2 4.1 01:24:30 10° N 01:28:47 59° WNW 01:33:03 10° SSW
PSLV R/B 3.8 01:26:26 17° NNE 01:29:34 87° WNW 01:33:36 10° SSW
Cosmos 2369 Rocket 2.3 01:28:55 10° N 01:34:25 49° ENE 01:37:02 28° ESE
Lacrosse 4 Rocket 3.7 01:32:05 10° SSE 01:32:22 11° SSE 01:32:22 11° SSE
SL-08 R/B 4.3 01:29:54 10° N 01:36:04 80° E 01:42:09 10° S
CZ-4 R/B 3.4 01:32:59 10° SSE 01:40:23 12° N 01:40:44 10° N
ERS-2 4.3 01:34:33 10° NNW 01:37:35 25° WNW 01:40:36 10° SW
Sakura Rocket 4.3 01:34:19 10° SW 01:37:43 27° SSE 01:38:29 25° SE
Cosmos 1939 Rocket 3.6 01:36:28 10° S 01:40:12 50° W 01:44:00 10° NNW
IRS-1C Rocket 4.2 01:38:27 10° S 01:43:43 75° WSW 01:49:00 10° NNW
CREW DRAGON DEMO-1 DEB 4.1 01:42:06 10° WNW 01:44:39 38° WSW 01:44:39 38° WSW
NOSS 3-2 (C) 3.6 01:40:17 10° S 01:45:16 41° ESE 01:45:16 41° ESE
CZ-3B R/B 3.1 01:43:09 10° WSW 01:45:50 22° NW 01:45:50 22° NW
Cosmos 1943 Rocket 2.2 01:40:32 10° NNW 01:46:06 78° WSW 01:51:41 10° SSE
CENTAUR R/B 2.6 01:41:40 10° S 01:46:54 45° ESE 01:47:09 44° ESE
Cosmos 1461 4.5 01:43:17 10° S 01:45:36 25° SSE 01:45:36 25° SSE
Cosmos 923 Rocket 3.8 01:42:50 10° SSW 01:48:00 79° ESE 01:49:34 46° NNE
H-2A R/B 3.2 01:43:51 10° SSE 01:51:28 28° NNE 01:54:02 10° N
ATLAS CENTAUR R/B 3.9 01:42:57 10° NW 02:00:19 86° NE 02:03:51 34° SE
Cosmos 158 Rocket 4.0 02:00:41 10° SSW 02:05:41 71° WNW 02:06:25 60° NNW
Cosmos 2228 Rocket 3.9 02:04:03 10° SSW 02:08:29 51° W 02:09:53 37° NNW
Cosmos 1812 4.1 02:07:52 10° SSW 02:11:05 38° W 02:11:05 38° W
NOSS 3-2 (A) 3.5 02:07:00 10° SW 02:12:27 65° NW 02:13:46 51° N
Cosmos 1680 Rocket 3.6 02:10:40 10° SSW 02:15:46 75° W 02:15:46 75° W
Cosmos 2239 Rocket 4.4 02:11:09 10° N 02:17:20 84° W 02:23:32 10° S
USA 238 DEB 4.0 02:23:32 10° SW 02:29:58 60° NW 02:31:13 51° NNW
USA 238 3.9 02:23:37 10° SW 02:30:04 60° NW 02:31:16 52° NNW
USA 267 4.3 02:56:34 35° NNW 02:56:34 35° NNW 03:00:08 10° NW
USA 281 4.4 02:56:10 10° S 03:02:07 37° WSW 03:08:06 10° NW
Cosmos 2369 Rocket 4.5 03:14:04 10° NW 03:17:58 19° W 03:19:05 18° WSW
Lacrosse 5 4.0 11:09:02 20° NE 11:09:02 20° NE 11:10:31 10° NE
NOSS 3-2 (C) 4.3 11:10:08 51° N 11:12:19 69° ENE 11:20:58 10° SE
CENTAUR R/B 3.4 11:10:33 47° N 11:13:18 71° ENE 11:22:10 10° SE
Atlas Centaur 2 3.0 11:17:05 49° S 11:17:05 49° S 11:22:45 10° E
ADEOS 4.4 11:16:02 10° NNE 11:21:05 48° E 11:26:06 10° S
Cosmos 2263 Rocket 4.3 11:30:10 14° N 11:30:10 14° N 11:31:01 10° N
ATLAS 2AS CENTAUR R/B 2.9 11:25:45 66° WSW 11:26:54 76° WNW 11:34:52 10° NNE
Milstar 3 Cent rocket 3.3 11:26:49 46° SSW 11:28:21 54° S 11:39:51 10° E
NOSS 3-2 (A) 4.1 11:38:28 54° W 11:39:27 57° WSW 11:47:53 10° S
Lacrosse 4 Rocket 2.5 11:39:58 40° NE 11:40:31 42° ENE 11:44:43 10° SE
CZ-4B R/B 3.4 11:43:58 10° SE 11:45:32 24° SE 11:45:32 24° SE
FENGYUN 3A 3.5 11:43:38 10° N 11:49:03 77° WNW 11:54:25 10° SSW
Cosmos 1461 3.1 11:54:26 69° SSW 11:54:26 69° SSW 11:58:28 10° SSE
